Hourly Data Report for October 28, 2015

All times are specified in Local Standard Time (LST). Add 1 hour to adjust for Daylight Saving Time where and when it is observed.

FREDERICTON
NEW BRUNSWICK

45°52'08.000" N
66°32'14.000" W
20.70 m
8101505
71700
YFC

Download Data

Hourly Data (October 2015)
Hourly Data Report for October 28, 2015
Temp Definition
°C
Dew Point Temp Definition
°C
Rel Hum Definition
%
Wind Dir Definition
10's deg

Wind Spd Definition
km/h
Visibility Definition
km
Stn Press Definition
kPa
Hmdx Definition


Wind Chill Definition


Weather Definition


TIME
00:00 Legend Double Dagger -1.5 -3.4 87 14 5 16.1 103.10   -3 LegendNANA
01:00 Legend Double Dagger -2.2 -3.8 89   0 16.1 103.16     LegendNANA
02:00 Legend Double Dagger -2.9 -3.8 94 18 11 16.1 103.21   -7 LegendNANA
03:00 Legend Double Dagger -3.0 -4.1 92 21 8 16.1 103.23   -6 LegendNANA
04:00 Legend Double Dagger -2.7 -3.8 92 21 9 16.1 103.25   -6 LegendNANA
05:00 Legend Double Dagger -3.3 -3.9 96 22 5 16.1 103.29   -5 LegendNANA
06:00 Legend Double Dagger -3.5 -4.1 96 22 5 16.1 103.32   -6 LegendNANA
07:00 Legend Double Dagger -4.9 -5.4 96 19 4 16.1 103.34   -7 LegendNANA
08:00 Legend Double Dagger -3.6 -4.4 94 18 4 16.1 103.37   -5 LegendNANA
09:00 Legend Double Dagger -0.5 -2.5 87   0 16.1 103.37     LegendNANA
10:00 Legend Double Dagger 2.6 -1.6 74   0 16.1 103.27     LegendNANA
11:00 Legend Double Dagger 5.5 -0.4 66 5 8 16.1 103.19     LegendNANA
12:00 Legend Double Dagger 8.6 -1.1 50 18 8 16.1 103.10     LegendNANA
13:00 Legend Double Dagger 10.4 -1.2 44 18 11 16.1 102.99     LegendNANA
14:00 Legend Double Dagger 9.9 -1.0 47 20 11 16.1 102.91     LegendNANA
15:00 Legend Double Dagger 10.3 -1.3 44 18 11 16.1 102.83     LegendNANA
16:00 Legend Double Dagger 9.4 -1.0 48 20 17 16.1 102.82     LegendNANA
17:00 Legend Double Dagger 8.3 0.5 58 18 11 16.1 102.77     LegendNANA
18:00 Legend Double Dagger 7.5 0.9 63 17 9 16.1 102.71     LegendNANA
19:00 Legend Double Dagger 7.1 1.2 66 14 9 16.1 102.61     LegendNANA
20:00 Legend Double Dagger 6.4 1.5 71 20 5 16.1 102.59     LegendNANA
21:00 Legend Double Dagger 6.3 2.1 74 14 8 16.1 102.51     Rain
22:00 Legend Double Dagger 5.3 3.4 87 11 9 16.1 102.35     Rain
23:00 Legend Double Dagger 5.0 4.0 93 11 11 6.4 102.24     Heavy Rain,Fog

Notes on Data Quality.

Legend

  • E = Estimated
  • M = Missing
  • NA = Not Available
  • ‡ = Partner data that is not subject to review by the National Climate Archives
Date modified: